COSMOS 886 DEB, 9962

Orbit data source: Space-Track

COSMOS 886 DEB, 9962 is space debris in LEO originally from a launch on Mon, 27 Dec 1976 UTC launched from the Tyuratam Missile And Space Complex (TTMTR). Debris objects in space refer to the collection of defunct objects orbiting the Earth. Examples of debris include non-operational satellites, rocket bodies, and fragments generated from explosions, collisions, or faulty payload assembly.

Loading next visibility...
Identifier
9962, 1976-126BC
Orbit
LEO
Country
Flag of CISCIS
Related business
Manufacturer
Unknown
Mission
Spacecraft
Bus & Motor
Unknown
Mass
Unknown
Launch date (UTC)
1976-12-27 (49 years ago)
Launch vehicle
Unknown
Launch site
Tyuratam Missile And Space Complex (TTMTR)
Object type
Payload
Rocket body
Debris
Shape & HBR
Unknown shape, 0.3 m
Radar Cross Section
Medium (>0.1 m² and <1 m²)

Expand to show TLE details & history
Last TLE update: 10 hours ago

TLE from 10 hours ago
0 COSMOS 886 DEB
1  9962U 76126BC  26130.14034551  .00001487  00000-0  36630-3 0  9994
2  9962  65.7631  88.3581 0555413 203.1960 154.3143 13.89723978390755
Epoch: 2026-05-10T03:22Z
TLE epoch observation values (Epoch: 2026-05-10T03:22:05.852Z)
Latitude
-0.00006°
Longitude
169.88599°
Altitude
1,301.338 km
Speed
7.022 km/s
True Right ascension
05h 53m 25s
True Declination
0° 00' 00"
Sunlit
Object was in daylight at epoch
Visualization orbit readout
Latitude
Unknown
Longitude
Unknown
Altitude
Unknown
Speed
Unknown
Apparent Right ascension
Unknown
Apparent Declination
Unknown
Sunlit
N/A
Visualization observer readout
Local Sidereal Time
22:02:21
Azimuth
Unknown
Elevation
Unknown
Doppler factor
Unknown
Orbital elements
Apogee altitude
1,333.904 km
Perigee altitude
522.308 km
Semi-major axis
7,306.243 km
Eccentricity
0.05554
Inclination
65.7631°
RAAN
88.3581°
Arg. of periapsis
203.196°
True anomaly
156.90926°
Mean anomaly
154.3143°
Eccentric anomaly
155.62752°
Mean motion
3.47538 °/min
Orbital period
103.59 mins
BSTAR
0.0003663
Loading maneuver chart data...
Computing Atmospheric mass density...
Loading historical data...
Loading historical data...
Loading historical data...
Loading historical data...
Loading historical data...
Loading historical data...
Loading historical data...

Documentation

Showing up to 5 results
|